"Pseudo-MPEC" for P225ixP

Created 2025 Jan 22 23:31:17 UT using Find_Orb

Click here for an explanation of pseudo-MPECs

 
 Astrometry: 
     P225ixP* C2025 01 06.48498008 01 43.442+72 00 45.63   ~16Il 22.37wXNEOCPF52
     P225ixP  C2025 01 06.49854108 01 41.620+72 01 06.54   ~16Il 22.19wXNEOCPF52
     P225ixP  C2025 01 06.51215508 01 39.798+72 01 27.64   ~16Il 22.69wXNEOCPF52
     P225ixP  C2025 01 06.52584508 01 37.904+72 01 48.46   ~16Il 22.23wXNEOCPF52

Station data:
(F52) Pan-STARRS 2, Haleakala  (N20.707382 W156.255910)  US/Hawaii.
   Observers J. Bulger, T. Dukes, T. Lowe, A. Schultz, M. Willman. Measurers
   K. Chambers, S. Chastel, T. de Boer, L. Denneau, J. Fairlamb, H.
   Flewelling, M. Huber, C.-C. Lin, E. Magnier, Y. Ramanjooloo, R. Wainscoat,
   R. Weryk. 1.8-m Ritchey-Chrétien + CCD.

Orbital elements:  P225ixP
   Perihelion 2025 Jan 12.92337 +/- 73.4 TT = 22:09:38 (JD 2460688.42337)
Epoch 2025 Jan  7.0 TT = JDT 2460682.5   Earth MOID: 0.6974      AutoNEOCP
M 357.93893828 +/- 20               (J2000 ecliptic)
n   0.34795444 +/- 0.255            Peri.   49.40809 +/- 80
a   2.00195567 +/- 0.979            Node    63.98428 +/- 42
e   0.1942399 +/- 0.265             Incl.   31.68433 +/- 15
P   2.83258                H 20.46  G  0.15   U 11.8  SR
q 1.61309597 +/- 0.509    Q 2.39081536 +/- 56.7
From 4 observations 2025 Jan. 6 (58.8 min); mean residual 0".07
Residuals in arcseconds: 
250106 F52  .05-  .01-    250106 F52  .12+  .11+    
250106 F52  .02+  .05-    250106 F52  .08-  .06-    

Ephemerides (geocentric):
Date (UTC) HH   RA             Dec           delta  r     elong  mag " sig PA
---- --------  ------------   ------------  ------ ------ -----  --- --------
2025 01 23 00  07 15 47.770   +76 42 44.05  .85810 1.6142 122.2 22.5  28d 163
2025 01 23 01  07 15 40.076   +76 43 04.90  .85829 1.6142 122.2 22.5  28d 163
2025 01 23 02  07 15 32.386   +76 43 25.65  .85848 1.6142 122.2 22.5  28d 163
2025 01 23 03  07 15 24.701   +76 43 46.29  .85868 1.6142 122.2 22.5  28d 163
2025 01 23 04  07 15 17.020   +76 44 06.83  .85887 1.6143 122.1 22.5  28d 163
2025 01 23 05  07 15 09.344   +76 44 27.27  .85906 1.6143 122.1 22.5  28d 163
2025 01 23 06  07 15 01.672   +76 44 47.61  .85925 1.6143 122.1 22.5  28d 164
2025 01 23 07  07 14 54.005   +76 45 07.84  .85945 1.6143 122.1 22.5  28d 164
2025 01 23 08  07 14 46.342   +76 45 27.97  .85964 1.6143 122.1 22.5  28d 164
2025 01 23 09  07 14 38.684   +76 45 48.00  .85983 1.6143 122.0 22.5  28d 164
2025 01 23 10  07 14 31.031   +76 46 07.92  .86003 1.6143 122.0 22.5  28d 164
2025 01 23 11  07 14 23.383   +76 46 27.75  .86022 1.6143 122.0 22.5  29d 164
2025 01 23 12  07 14 15.740   +76 46 47.47  .86042 1.6143 122.0 22.5  29d 164
2025 01 23 13  07 14 08.102   +76 47 07.09  .86061 1.6143 121.9 22.5  29d 164
2025 01 23 14  07 14 00.470   +76 47 26.60  .86080 1.6143 121.9 22.5  29d 164
2025 01 23 15  07 13 52.842   +76 47 46.02  .86100 1.6144 121.9 22.5  29d 164
2025 01 23 16  07 13 45.219   +76 48 05.33  .86119 1.6144 121.9 22.5  29d 164
2025 01 23 17  07 13 37.602   +76 48 24.54  .86139 1.6144 121.9 22.5  29d 164
2025 01 23 18  07 13 29.991   +76 48 43.65  .86158 1.6144 121.8 22.5  29d 164
2025 01 23 19  07 13 22.384   +76 49 02.66  .86178 1.6144 121.8 22.5  29d 164
2025 01 23 20  07 13 14.784   +76 49 21.57  .86197 1.6144 121.8 22.5  29d 164
2025 01 23 21  07 13 07.189   +76 49 40.38  .86217 1.6144 121.8 22.5  29d 164
2025 01 23 22  07 12 59.599   +76 49 59.08  .86236 1.6144 121.8 22.5  29d 164
2025 01 23 23  07 12 52.016   +76 50 17.68  .86256 1.6144 121.7 22.5  29d 164
2025 01 24 00  07 12 44.438   +76 50 36.19  .86275 1.6144 121.7 22.5  29d 164
2025 01 24 01  07 12 36.866   +76 50 54.59  .86295 1.6145 121.7 22.5  29d 164
2025 01 24 02  07 12 29.300   +76 51 12.89  .86314 1.6145 121.7 22.5  30d 164
2025 01 24 03  07 12 21.740   +76 51 31.09  .86334 1.6145 121.7 22.5  30d 164
2025 01 24 04  07 12 14.186   +76 51 49.19  .86353 1.6145 121.6 22.5  30d 164
2025 01 24 05  07 12 06.638   +76 52 07.19  .86373 1.6145 121.6 22.5  30d 164
2025 01 24 06  07 11 59.097   +76 52 25.09  .86393 1.6145 121.6 22.5  30d 164
2025 01 24 07  07 11 51.561   +76 52 42.89  .86412 1.6145 121.6 22.5  30d 164
2025 01 24 08  07 11 44.033   +76 53 00.59  .86432 1.6145 121.6 22.5  30d 164
2025 01 24 09  07 11 36.510   +76 53 18.19  .86452 1.6145 121.5 22.5  30d 164
2025 01 24 10  07 11 28.994   +76 53 35.69  .86471 1.6146 121.5 22.5  30d 164
2025 01 24 11  07 11 21.485   +76 53 53.09  .86491 1.6146 121.5 22.5  30d 164
2025 01 24 12  07 11 13.982   +76 54 10.39  .86511 1.6146 121.5 22.5  30d 164
2025 01 24 13  07 11 06.486   +76 54 27.59  .86530 1.6146 121.5 22.5  30d 164
2025 01 24 14  07 10 58.997   +76 54 44.69  .86550 1.6146 121.4 22.5  30d 164
2025 01 24 15  07 10 51.515   +76 55 01.70  .86570 1.6146 121.4 22.5  30d 164
2025 01 24 16  07 10 44.039   +76 55 18.60  .86590 1.6146 121.4 22.5  30d 164
2025 01 24 17  07 10 36.571   +76 55 35.40  .86609 1.6146 121.4 22.5  30d 165
2025 01 24 18  07 10 29.110   +76 55 52.11  .86629 1.6146 121.3 22.5  30d 165
2025 01 24 19  07 10 21.655   +76 56 08.71  .86649 1.6146 121.3 22.5  30d 165
2025 01 24 20  07 10 14.208   +76 56 25.22  .86669 1.6147 121.3 22.5  30d 165
2025 01 24 21  07 10 06.768   +76 56 41.63  .86689 1.6147 121.3 22.5  30d 165
2025 01 24 22  07 09 59.336   +76 56 57.94  .86708 1.6147 121.3 22.5  31d 165
2025 01 24 23  07 09 51.911   +76 57 14.15  .86728 1.6147 121.2 22.5  31d 165